Location: Barcelona
(41.3830°N, 2.1830°E)
Time: 18:20:51
(UTC+01:00)

ISS - Pass Details

Date: 24 January 2020
Orbit: 415 x 422 km, 51.6° (Epoch: 23 January)

Event Time Altitude Azimuth Distance (km) Brightness Sun altitude
Rises 18:20:35 0° 233° (SW) 2,360 1.9 -4.9°
Reaches altitude 10° 18:22:40 10° 234° (SW) 1,498 0.6 -5.3°
Maximum altitude 18:26:02 90° 316° (NW) 424 -3.7 -5.9°
Drops below altitude 10° 18:29:25 10° 54° (NE) 1,503 -1.6 -6.5°
Enters shadow 18:29:50 - 55° (NE) 1,672 -1.3 -6.6°
